Maple Lake, MN

10:02 AM CDT on September 23, 2017 (GMT -0500)
Maple Lake Municipal

Weather History for KMGG - February, 2013

Change the Weather History Date:

Wednesday, February 20, 2013

  Actual Average (KSTC) Record (KSTC)
Temperature  
Mean Temperature 2 °F -  
Max Temperature 13 °F 30 °F 57 °F (1981)
Min Temperature -9 °F 7 °F -20 °F (1966)
Degree Days  
Heating Degree Days 63    
Moisture  
Dew Point -6 °F    
Average Humidity 72    
Maximum Humidity 87    
Minimum Humidity 57    
Precipitation  
Precipitation 0.00 in - - ()
Sea Level Pressure  
Sea Level Pressure 30.41 in    
Wind  
Wind Speed 3 mph (NNW)    
Max Wind Speed 7 mph    
Max Gust Speed -    
Visibility 10 miles    
Events      
Averages and records for this station are not official NWS values.
T = Trace of Precipitation, MM = Missing Value Source: NWS Daily Summary

Daily Weather History Graph

Daily Weather History Graph

Search for Another Location

Airport or City:

Trip Planner

Search our weather history database for the weather conditions in past years. The results will help you decide how hot, cold, wet, or windy it might be!

Date:

Astronomy

Feb. 20, 2013 Rise Set
Actual Time 7:08 AM CST 5:51 PM CST
Civil Twilight 6:38 AM CST 6:21 PM CST
Nautical Twilight 6:04 AM CST 6:55 PM CST
Astronomical Twilight 5:30 AM CST 7:29 PM CST
Moon 1:04 PM CST (2/20) 3:38 AM CST (2/20)
Length of Visible Light 11h 42m
Length of Day
10h 42m
Waxing Gibbous, 76% of the Moon is Illuminated
Feb 20
Waxing Gibbous
Feb 25
Full
Mar 4
Last Quarter
Mar 11
New
Mar 19
First Quarter

Hourly Weather History & Observations

Time (CST) Temp. Windchill Dew Point Humidity Pressure Visibility Wind Dir Wind Speed Gust Speed Precip Events Conditions
12:16 AM -4.9 °F -15.6 °F -11.2 °F 74% 30.37 in 10.0 mi WNW 4.6 mph - N/A   Clear
12:35 AM -5.1 °F -15.8 °F -11.4 °F 74% 30.38 in 10.0 mi WNW 4.6 mph - N/A   Clear
12:56 AM -5.6 °F -16.5 °F -11.6 °F 75% 30.39 in 10.0 mi NW 4.6 mph - N/A   Clear
1:15 AM -5.6 °F -19.7 °F -11.0 °F 77% 30.38 in 10.0 mi NW 6.9 mph - N/A   Clear
1:35 AM -4.5 °F -16.9 °F -10.3 °F 76% 30.39 in 10.0 mi NW 5.8 mph - N/A   Clear
1:55 AM -4.9 °F -13.4 °F -10.5 °F 77% 30.39 in 10.0 mi NW 3.5 mph - N/A   Clear
2:16 AM -5.4 °F -14.1 °F -10.8 °F 77% 30.40 in 10.0 mi WNW 3.5 mph - N/A   Clear
2:55 AM -6.7 °F -15.5 °F -11.7 °F 79% 30.41 in 10.0 mi NW 3.5 mph - N/A   Clear
3:15 AM -7.6 °F -16.5 °F -12.1 °F 81% 30.41 in 10.0 mi WNW 3.5 mph - N/A   Clear
3:35 AM -7.6 °F -18.8 °F -12.1 °F 81% 30.41 in 10.0 mi NW 4.6 mph - N/A   Clear
3:56 AM -8.7 °F -17.8 °F -13.0 °F 81% 30.41 in 10.0 mi NW 3.5 mph - N/A   Clear
4:16 AM -7.2 °F -18.3 °F -11.6 °F 81% 30.41 in 10.0 mi NNW 4.6 mph - N/A   Clear
4:35 AM -8.7 °F - -13.0 °F 81% 30.41 in 10.0 mi Calm Calm - N/A   Clear
4:55 AM -9.4 °F -20.9 °F -13.0 °F 84% 30.42 in 10.0 mi NW 4.6 mph - N/A   Clear
5:16 AM -8.9 °F -20.2 °F -12.8 °F 83% 30.42 in 10.0 mi WNW 4.6 mph - N/A   Clear
5:36 AM -9.0 °F -20.4 °F -12.8 °F 83% 30.42 in 10.0 mi WNW 4.6 mph - N/A   Clear
5:55 AM -9.6 °F -21.1 °F -13.2 °F 84% 30.42 in 10.0 mi NW 4.6 mph - N/A   Clear
6:15 AM -8.9 °F -18.0 °F -12.8 °F 83% 30.43 in 10.0 mi NW 3.5 mph - N/A   Clear
6:36 AM -9.9 °F -19.2 °F -13.5 °F 84% 30.43 in 10.0 mi NW 3.5 mph - N/A   Clear
7:15 AM -9.8 °F - -13.0 °F 86% 30.44 in 10.0 mi Calm Calm - N/A   Clear
7:36 AM -9.8 °F - -13.2 °F 85% 30.44 in 10.0 mi Calm Calm - N/A   Clear
7:55 AM -8.9 °F - -12.3 °F 85% 30.45 in 10.0 mi Calm Calm - N/A   Clear
8:36 AM -6.7 °F -15.5 °F -11.4 °F 80% 30.44 in 10.0 mi North 3.5 mph - N/A   Clear
8:55 AM -4.9 °F -15.6 °F -9.6 °F 80% 30.43 in 10.0 mi North 4.6 mph - N/A   Clear
9:15 AM -4.0 °F -12.4 °F -9.4 °F 78% 30.43 in 10.0 mi North 3.5 mph - N/A   Clear
9:36 AM -1.1 °F -14.3 °F -7.6 °F 74% 30.43 in 10.0 mi NE 6.9 mph - N/A   Clear
9:55 AM 0.3 °F -11.2 °F -7.6 °F 69% 30.44 in 10.0 mi NE 5.8 mph - N/A   Clear
10:15 AM 1.2 °F -6.4 °F -6.9 °F 69% 30.44 in 10.0 mi ENE 3.5 mph - N/A   Clear
10:36 AM 1.9 °F -7.6 °F -6.7 °F 67% 30.44 in 10.0 mi ENE 4.6 mph - N/A   Clear
10:55 AM 2.8 °F -4.6 °F -6.3 °F 66% 30.44 in 10.0 mi ENE 3.5 mph - N/A   Clear
11:16 AM 4.1 °F - -5.8 °F 64% 30.44 in 10.0 mi Calm Calm - N/A   Clear
11:35 AM 5.2 °F - -5.1 °F 63% 30.44 in 10.0 mi Calm Calm - N/A   Clear
11:56 AM 5.5 °F - -4.9 °F 62% 30.45 in 10.0 mi Calm Calm - N/A   Clear
12:16 PM 5.9 °F - -4.7 °F 62% 30.45 in 10.0 mi Calm Calm - N/A   Clear
12:35 PM 8.1 °F - -3.8 °F 58% 30.44 in 10.0 mi Calm Calm - N/A   Clear
12:56 PM 7.5 °F - -3.5 °F 61% 30.43 in 10.0 mi Calm Calm - N/A   Clear
1:15 PM 7.9 °F - -3.3 °F 60% 30.44 in 10.0 mi Calm Calm - N/A   Clear
1:35 PM 9.1 °F - -2.4 °F 60% 30.44 in 10.0 mi Calm Calm - N/A   Clear
1:55 PM 9.0 °F - -2.4 °F 60% 30.44 in 10.0 mi Calm Calm - N/A   Clear
2:15 PM 9.1 °F - -2.4 °F 60% 30.44 in 10.0 mi Calm Calm - N/A   Clear
2:36 PM 9.9 °F - -1.8 °F 59% 30.43 in 10.0 mi Calm Calm - N/A   Clear
2:55 PM 10.6 °F - -1.3 °F 59% 30.43 in 10.0 mi Calm Calm - N/A   Clear
3:15 PM 11.3 °F - -1.3 °F 57% 30.42 in 10.0 mi Calm Calm - N/A   Clear
3:35 PM 12.2 °F 6.1 °F -0.0 °F 58% 30.42 in 10.0 mi North 3.5 mph - N/A   Clear
3:56 PM 12.7 °F - 0.3 °F 58% 30.41 in 10.0 mi Calm Calm - N/A   Clear
4:15 PM 13.5 °F 4.4 °F 0.9 °F 57% 30.40 in 10.0 mi NE 5.8 mph - N/A   Clear
4:35 PM 13.1 °F 5.4 °F 1.4 °F 60% 30.40 in 10.0 mi NE 4.6 mph - N/A   Clear
4:55 PM 12.9 °F 3.8 °F 0.3 °F 57% 30.40 in 10.0 mi NE 5.8 mph - N/A   Clear
5:15 PM 12.2 °F 6.1 °F 1.0 °F 61% 30.39 in 10.0 mi NE 3.5 mph - N/A   Clear
5:36 PM 11.3 °F 5.1 °F 0.5 °F 62% 30.39 in 10.0 mi North 3.5 mph - N/A   Clear
5:55 PM 10.8 °F 4.5 °F 0.5 °F 63% 30.39 in 10.0 mi North 3.5 mph - N/A   Clear
6:15 PM 10.6 °F 1.0 °F 0.5 °F 64% 30.39 in 10.0 mi NE 5.8 mph - N/A   Clear
6:36 PM 10.4 °F - 0.5 °F 64% 30.39 in 10.0 mi Calm Calm - N/A   Clear
7:16 PM 10.0 °F - 0.5 °F 65% 30.39 in 10.0 mi Calm Calm - N/A   Clear
7:35 PM 9.5 °F - 0.5 °F 67% 30.39 in 10.0 mi Calm Calm - N/A   Clear
7:55 PM 8.1 °F - -0.0 °F 70% 30.38 in 10.0 mi Calm Calm - N/A   Clear
8:16 PM 6.3 °F - -0.0 °F 75% 30.38 in 10.0 mi Calm Calm - N/A   Clear
8:36 PM 4.8 °F - -1.5 °F 75% 30.38 in 10.0 mi Calm Calm - N/A   Clear
9:15 PM 3.4 °F - -2.0 °F 78% 30.38 in 10.0 mi Calm Calm - N/A   Clear
9:36 PM 3.4 °F - -1.8 °F 79% 30.38 in 10.0 mi Calm Calm - N/A   Clear
9:55 PM 2.5 °F - -2.4 °F 80% 30.38 in 10.0 mi Calm Calm - N/A   Clear
10:15 PM 1.9 °F - -3.3 °F 79% 30.38 in 10.0 mi Calm Calm - N/A   Clear
10:36 PM 0.7 °F - -3.8 °F 81% 30.39 in 10.0 mi Calm Calm - N/A   Clear
10:55 PM 0.9 °F - -3.6 °F 81% 30.39 in 10.0 mi Calm Calm - N/A   Clear
11:15 PM -0.0 °F - -4.5 °F 81% 30.39 in 10.0 mi Calm Calm - N/A   Clear
11:36 PM -2.2 °F - -5.3 °F 87% 30.39 in 10.0 mi Calm Calm - N/A   Clear
11:56 PM -2.2 °F - -6.0 °F 84% 30.39 in 10.0 mi Calm Calm - N/A   Clear